Location: Newark
(47.0667°N, 8.7500°E)
Time: 20:51:53
(UTC+00:00)

OTV 5 (USA 277) - Visible Passes

Search period start: 17 October 2019 00:00
Search period end: 27 October 2019 00:00
Orbit: 310 x 324 km, 54.5° (Epoch: 08 October)

Date Brightness Start Highest point End Pass type
(mag) Time Alt. Az. Time Alt. Az. Time Alt. Az.
17 Oct ? 04:21:37 28° NW 04:22:46 54° NNE 04:25:27 10° ESE visible
18 Oct ? 03:05:07 10° ENE 03:05:07 10° ENE 03:05:09 10° ENE visible
18 Oct ? 04:36:01 26° WNW 04:37:20 64° SW 04:40:03 10° SE visible
19 Oct ? 03:19:36 14° E 03:19:36 14° E 03:20:10 10° E visible
19 Oct ? 04:50:31 18° W 04:51:47 25° SW 04:54:07 10° SSE visible
20 Oct ? 03:34:13 16° ESE 03:34:13 16° ESE 03:34:55 10° ESE visible
20 Oct ? 05:05:11 10° WSW 05:06:05 11° SW 05:06:59 10° SSW visible
21 Oct ? 03:48:58 12° SSE 03:48:58 12° SSE 03:49:17 10° SSE visible
